Location: Campo Claro
(10.4907°N, 66.8285°W)
Time: 05:40:02
(UTC+00:00)

BREEZE-M DEB (TANK) - Pass Details

Date: 27 June 2022
Orbit: 341 x 14877 km, 49.6° (Epoch: 11 August)

Event Time Altitude Azimuth Distance (km) Brightness Sun altitude
Rises 00:29:58 0° 318° (NW) 19,483 12.4 -22.2°
Reaches altitude 10° 00:58:14 10° 315° (NW) 19,194 12.0 -28.1°
Maximum altitude 02:32:56 34° 261° (W) 9,111 9.4 -45.6°
Enters shadow 02:52:30 20° 210° (SSW) 6,015 8.3 -48.6°
